This is the latest recevied weather packets stored in our database for station/object N8VDS-10. If no packets are shown the sender has not sent any weather packets the latest 10 day(s).
| Time | Temp. | Humidity | Pressure | Rain* | Wind** | Luminosity | Snow |
|---|---|---|---|---|---|---|---|
| 1777911725 | 21.11° C | 39% | 1005.6 hPa | 0 mm | - | 748 W/m² | - |
| 1777911422 | 20.56° C | 38% | 1005.8 hPa | 0 mm | - | 744 W/m² | - |
| 1777911119 | 21.11° C | 38% | 1005.7 hPa | 0 mm | - | 739 W/m² | - |
| 1777910816 | 21.11° C | 38% | 1005.8 hPa | 0 mm | - | 69 W/m² | - |
| 1777910513 | 20.56° C | 40% | 1006 hPa | 0 mm | - | 490 W/m² | - |
| 1777910209 | 20° C | 41% | 1006 hPa | 0 mm | - | 726 W/m² | - |
| 1777909907 | 20° C | 43% | 1006.1 hPa | 0 mm | - | 715 W/m² | - |
| 1777909604 | 20° C | 44% | 1006.2 hPa | 0 mm | - | 702 W/m² | - |
| 1777909301 | 20° C | 47% | 1006.5 hPa | 0 mm | - | 69 W/m² | - |
| 1777908999 | 20° C | 47% | 1006.3 hPa | 0 mm | - | 688 W/m² | - |
| 1777908697 | 20° C | 49% | 1006.6 hPa | 0 mm | - | 688 W/m² | - |
| 1777908393 | 18.89° C | 49% | 1006.5 hPa | 0 mm | - | 677 W/m² | - |
| 1777908090 | 18.89° C | 51% | 1006.7 hPa | 0 mm | - | 667 W/m² | - |
| 1777907786 | 18.33° C | 51% | 1006.7 hPa | 0 mm | - | 658 W/m² | - |
| 1777907481 | 18.33° C | 52% | 1006.8 hPa | 0 mm | - | 647 W/m² | - |
| 1777907178 | 17.78° C | 53% | 1006.9 hPa | 0 mm | - | 633 W/m² | - |
| 1777906875 | 17.78° C | 54% | 1006.9 hPa | 0 mm | - | 625 W/m² | - |
| 1777906573 | 17.78° C | 53% | 1006.8 hPa | 0 mm | - | 611 W/m² | - |
| 1777906267 | 17.22° C | 55% | 1006.8 hPa | 0 mm | - | 597 W/m² | - |
| 1777905964 | 17.22° C | 56% | 1006.9 hPa | 0 mm | - | 588 W/m² | - |
| 1777905661 | 17.22° C | 55% | 1006.9 hPa | 0 mm | - | 573 W/m² | - |
| 1777905358 | 16.67° C | 56% | 1006.9 hPa | 0 mm | - | 558 W/m² | - |
| 1777905056 | 16.67° C | 57% | 1006.9 hPa | 0 mm | - | 551 W/m² | - |
| 1777904753 | 16.67° C | 56% | 1007.1 hPa | 0 mm | - | 241 W/m² | - |
| 1777904450 | 16.11° C | 58% | 1007 hPa | 0 mm | - | 517 W/m² | - |
* Rain latest hour (hover to see other rain measurements)
** Current wind speed in m/s (hover to see current wind gust speed)